QPF
0.02 0.03 0.04 0.05 0.06 0.05 0.04 0.02 0.01 0.01 0.02 0.02 0.03 0.04 0.04 0.05 0.06 0.07 0.09 0.07 0.06 0.04 0.02 0.02 0.02 0.03 0.03 0.03 0.03 0.04 0.04 0.05 0.05 0.06 0.05 0.03 0.02 0.02 0.02 0.01 0.01 0.01 0.01
0.03 0.04 0.06 0.07 0.06 0.04 0.02 0.01 0.01 0.01 0.01 0.01 0.03 0.03 0.03 0.04 0.05 0.04 0.05 0.05 0.04 0.04 0.03 0.03 0.02 0.02 0.03 0.04 0.04 0.04 0.05 0.06 0.07 0.07 0.05 0.03 0.02 0.02 0.02 0.01 0.01 0.01 0.01
0.04 0.04 0.05 0.04 0.03 0.02 0.02 0.01 0.01 0.01 0.01 0.01 0.02 0.03 0.03 0.03 0.04 0.05 0.06 0.05 0.04 0.04 0.03 0.03 0.03 0.03 0.03 0.03 0.06 0.07 0.07 0.08 0.07 0.06 0.04 0.03 0.01 0.01 0.02 0.01 0.01 0.01 0.01
0.04 0.03 0.03 0.03 0.02 0.02 0.02 0.01 0.01 0.01 0.01 0.01 0.02 0.03 0.04 0.05 0.05 0.05 0.06 0.05 0.04 0.03 0.02 0.02 0.03 0.03 0.03 0.03 0.04 0.05 0.04 0.04 0.04 0.03 0.03 0.02 0.02 0.02 0.02 0.02 0.02 0.02 0.02
0.04 0.03 0.02 0.02 0.01 0.02 0.02 0.02 0.01 0.01 0.01 0.01 0.02 0.02 0.03 0.03 0.03 0.04 0.05 0.03 0.03 0.02 0.02 0.02 0.02 0.02 0.03 0.02 0.02 0.02 0.02 0.02 0.02 0.02 0.02 0.02 0.01 0.02 0.02 0.02 0.02 0.02 0.02
0.03 0.02 0.02 0.02 0.01 0.01 0.01 0.01 0.01 0.01 0.00 0.01 0.01 0.02 0.01 0.01 0.02 0.03 0.03 0.03 0.03 0.03 0.03 0.02 0.02 0.02 0.01 0.01 0.01 0.01 0.02 0.02 0.02 0.02 0.02 0.02 0.01 0.01 0.02 0.02 0.02 0.02 0.02
0.03 0.01 0.01 0.02 0.02 0.02 0.02 0.02 0.02 0.01 0.01 0.01 0.01 0.01 0.02 0.02 0.02 0.03 0.03 0.04 0.04 0.04 0.04 0.04 0.03 0.02 0.01 0.01 0.01 0.02 0.01 0.01 0.01 0.01 0.01 0.02 0.01 0.02 0.02 0.02 0.02 0.02 0.02
0.02 0.01 0.01 0.02 0.01 0.02 0.02 0.02 0.02 0.02 0.02 0.01 0.01 0.02 0.02 0.02 0.01 0.02 0.02 0.03 0.03 0.04 0.04 0.04 0.03 0.02 0.02 0.02 0.02 0.02 0.01 0.01 0.00 0.00 0.01 0.02 0.02 0.02 0.02 0.02 0.02 0.02 0.02
0.01 0.01 0.01 0.01 0.01 0.01 0.01 0.01 0.01 0.02 0.01 0.01 0.01 0.01 0.02 0.02 0.01 0.01 0.01 0.02 0.03 0.03 0.03 0.03 0.03 0.03 0.03 0.02 0.03 0.03 0.02 0.02 0.01 0.01 0.01 0.01 0.01 0.01 0.01 0.01 0.02 0.03 0.03
0.01 0.01 0.01 0.01 0.01 0.01 0.01 0.01 0.01 0.01 0.01 0.01 0.01 0.02 0.02 0.02 0.01 0.01 0.02 0.02 0.02 0.03 0.04 0.05 0.06 0.05 0.05 0.03 0.02 0.03 0.02 0.02 0.02 0.01 0.01 0.01 0.01 0.02 0.02 0.03 0.03 0.04 0.04
0.02 0.01 0.01 0.01 0.01 0.01 0.01 0.01 0.01 0.01 0.01 0.01 0.01 0.02 0.02 0.01 0.01 0.01 0.02 0.02 0.01 0.01 0.02 0.02 0.03 0.02 0.02 0.02 0.02 0.02 0.03 0.03 0.03 0.03 0.02 0.02 0.02 0.03 0.03 0.03 0.04 0.04 0.05
0.03 0.02 0.02 0.02 0.01 0.01 0.01 0.01 0.01 0.01 0.01 0.01 0.01 0.01 0.01 0.01 0.00 0.00 0.01 0.02 0.02 0.03 0.02 0.02 0.02 0.02 0.02 0.01 0.02 0.02 0.03 0.02 0.03 0.03 0.03 0.03 0.03 0.03 0.03 0.03 0.04 0.05 0.05
0.04 0.04 0.04 0.04 0.03 0.02 0.01 0.02 0.02 0.01 0.01 0.01 0.01 0.02 0.01 0.01 0.01 0.00 0.01 0.01 0.01 0.02 0.03 0.03 0.03 0.03 0.02 0.02 0.01 0.02 0.02 0.02 0.01 0.02 0.02 0.02 0.02 0.03 0.03 0.02 0.03 0.04 0.03
0.03 0.04 0.05 0.06 0.05 0.03 0.02 0.02 0.02 0.02 0.03 0.03 0.03 0.02 0.02 0.02 0.01 0.01 0.01 0.00 0.01 0.01 0.02 0.03 0.03 0.03 0.03 0.02 0.02 0.01 0.01 0.01 0.01 0.01 0.01 0.01 0.01 0.02 0.03 0.02 0.02 0.03 0.03
0.02 0.03 0.04 0.05 0.05 0.04 0.02 0.02 0.03 0.03 0.05 0.04 0.03 0.03 0.02 0.02 0.02 0.02 0.01 0.01 0.01 0.01 0.01 0.02 0.02 0.02 0.02 0.02 0.02 0.02 0.02 0.02 0.01 0.02 0.02 0.01 0.01 0.02 0.02 0.02 0.02 0.03 0.03
0.01 0.02 0.03 0.04 0.05 0.05 0.04 0.03 0.03 0.04 0.04 0.03 0.03 0.03 0.02 0.02 0.02 0.02 0.02 0.01 0.01 0.01 0.02 0.01 0.01 0.01 0.01 0.02 0.02 0.01 0.01 0.01 0.02 0.03 0.03 0.03 0.02 0.03 0.03 0.03 0.03 0.03 0.03
0.01 0.02 0.04 0.05 0.06 0.05 0.04 0.04 0.04 0.04 0.04 0.02 0.03 0.03 0.02 0.02 0.02 0.03 0.02 0.02 0.02 0.02 0.02 0.01 0.01 0.01 0.01 0.01 0.01 0.01 0.01 0.01 0.01 0.02 0.03 0.03 0.03 0.02 0.03 0.04 0.03 0.02 0.02
0.02 0.02 0.02 0.03 0.04 0.04 0.03 0.03 0.04 0.05 0.05 0.03 0.03 0.03 0.02 0.02 0.02 0.02 0.02 0.02 0.02 0.02 0.02 0.01 0.01 0.01 0.01 0.02 0.02 0.02 0.02 0.02 0.02 0.02 0.03 0.03 0.03 0.02 0.03 0.03 0.03 0.02 0.01
0.03 0.02 0.02 0.02 0.03 0.04 0.03 0.03 0.04 0.04 0.04 0.03 0.02 0.01 0.01 0.01 0.01 0.01 0.01 0.01 0.01 0.01 0.01 0.01 0.01 0.01 0.02 0.02 0.02 0.02 0.02 0.02 0.02 0.03 0.04 0.04 0.04 0.03 0.03 0.03 0.03 0.03 0.02
0.04 0.04 0.03 0.03 0.03 0.02 0.03 0.02 0.03 0.04 0.04 0.03 0.03 0.02 0.01 0.01 0.00 0.00 0.01 0.01 0.01 0.01 0.01 0.01 0.01 0.01 0.01 0.01 0.01 0.02 0.02 0.02 0.02 0.03 0.03 0.03 0.03 0.03 0.03 0.03 0.03 0.03 0.03
0.04 0.04 0.03 0.03 0.03 0.02 0.02 0.02 0.02 0.02 0.03 0.03 0.03 0.02 0.02 0.01 0.01 0.01 0.01 0.01 0.01 0.01 0.01 0.01 0.01 0.01 0.01 0.01 0.01 0.01 0.02 0.02 0.03 0.02 0.02 0.03 0.03 0.03 0.03 0.03 0.03 0.03 0.02
0.06 0.05 0.04 0.05 0.04 0.03 0.03 0.03 0.02 0.02 0.03 0.02 0.01 0.01 0.01 0.01 0.01 0.01 0.01 0.01 0.01 0.00 0.00 0.00 0.00 0.01 0.01 0.01 0.01 0.02 0.02 0.03 0.03 0.03 0.02 0.03 0.03 0.03 0.03 0.03 0.02 0.02 0.02
0.05 0.06 0.05 0.04 0.04 0.03 0.04 0.05 0.04 0.03 0.02 0.01 0.01 0.00 0.01 0.01 0.01 0.01 0.01 0.01 0.01 0.01 0.00 0.01 0.01 0.01 0.01 0.01 0.02 0.02 0.02 0.02 0.02 0.02 0.02 0.02 0.02 0.02 0.02 0.02 0.02 0.02 0.02
0.02 0.04 0.06 0.06 0.05 0.04 0.04 0.04 0.03 0.02 0.02 0.01 0.01 0.00 0.01 0.01 0.01 0.01 0.01 0.01 0.01 0.01 0.01 0.00 0.01 0.01 0.01 0.01 0.02 0.02 0.02 0.02 0.02 0.02 0.02 0.02 0.02 0.02 0.02 0.02 0.02 0.02 0.02
0.02 0.02 0.03 0.04 0.05 0.06 0.06 0.05 0.04 0.02 0.02 0.01 0.01 0.01 0.01 0.01 0.01 0.01 0.01 0.01 0.01 0.01 0.01 0.01 0.01 0.01 0.01 0.01 0.01 0.01 0.02 0.02 0.02 0.03 0.03 0.03 0.03 0.02 0.02 0.02 0.02 0.02 0.02
0.03 0.02 0.02 0.02 0.02 0.03 0.04 0.04 0.03 0.02 0.01 0.01 0.01 0.01 0.01 0.01 0.01 0.01 0.01 0.01 0.01 0.01 0.01 0.01 0.01 0.01 0.02 0.02 0.02 0.02 0.02 0.02 0.02 0.02 0.02 0.03 0.03 0.03 0.03 0.03 0.03 0.02 0.02
MSLP
1013.96 1013.48 1012.94 1012.32 1011.66 1010.96 1010.27 1009.62 1009.05 1008.60 1008.29 1008.14 1008.15 1008.31 1008.61 1009.01 1009.48 1010.01 1010.55 1011.09 1011.62 1012.12 1012.59 1013.03 1013.45 1013.87 1014.27 1014.67 1015.07 1015.45 1015.82 1016.16 1016.48 1016.78 1017.05 1017.31 1017.57 1017.84 1018.15 1018.48 1018.85 1019.25 1019.68
1013.63 1013.11 1012.54 1011.90 1011.21 1010.49 1009.77 1009.09 1008.50 1008.01 1007.67 1007.49 1007.47 1007.60 1007.87 1008.25 1008.71 1009.23 1009.77 1010.32 1010.86 1011.38 1011.88 1012.36 1012.83 1013.30 1013.75 1014.21 1014.66 1015.09 1015.51 1015.90 1016.25 1016.57 1016.85 1017.11 1017.37 1017.62 1017.89 1018.19 1018.52 1018.87 1019.25
1013.32 1012.75 1012.14 1011.46 1010.74 1009.99 1009.26 1008.57 1007.96 1007.47 1007.11 1006.91 1006.87 1006.98 1007.23 1007.58 1008.01 1008.50 1009.03 1009.56 1010.10 1010.63 1011.15 1011.66 1012.18 1012.69 1013.21 1013.73 1014.24 1014.74 1015.21 1015.65 1016.04 1016.39 1016.70 1016.97 1017.21 1017.45 1017.69 1017.95 1018.22 1018.52 1018.84
1012.99 1012.36 1011.68 1010.96 1010.21 1009.45 1008.70 1008.02 1007.42 1006.94 1006.59 1006.40 1006.36 1006.46 1006.68 1007.00 1007.40 1007.85 1008.33 1008.84 1009.35 1009.87 1010.40 1010.94 1011.49 1012.05 1012.63 1013.21 1013.79 1014.36 1014.89 1015.38 1015.82 1016.20 1016.53 1016.81 1017.06 1017.28 1017.49 1017.71 1017.93 1018.17 1018.43
1012.57 1011.87 1011.13 1010.36 1009.57 1008.80 1008.06 1007.40 1006.83 1006.39 1006.09 1005.92 1005.90 1006.01 1006.22 1006.51 1006.87 1007.28 1007.71 1008.17 1008.65 1009.14 1009.66 1010.21 1010.78 1011.38 1012.01 1012.65 1013.29 1013.91 1014.50 1015.05 1015.53 1015.95 1016.31 1016.60 1016.85 1017.06 1017.25 1017.43 1017.61 1017.80 1018.00
1012.04 1011.25 1010.43 1009.61 1008.79 1008.01 1007.29 1006.66 1006.15 1005.77 1005.53 1005.42 1005.44 1005.57 1005.79 1006.07 1006.40 1006.77 1007.16 1007.57 1008.01 1008.47 1008.97 1009.51 1010.09 1010.72 1011.38 1012.06 1012.74 1013.41 1014.04 1014.63 1015.15 1015.60 1015.98 1016.29 1016.54 1016.75 1016.93 1017.09 1017.25 1017.40 1017.56
1011.38 1010.50 1009.60 1008.71 1007.85 1007.06 1006.36 1005.78 1005.33 1005.02 1004.85 1004.82 1004.90 1005.07 1005.31 1005.60 1005.93 1006.27 1006.64 1007.02 1007.42 1007.86 1008.34 1008.87 1009.46 1010.09 1010.76 1011.46 1012.17 1012.86 1013.52 1014.13 1014.67 1015.14 1015.54 1015.86 1016.13 1016.35 1016.53 1016.69 1016.84 1016.97 1017.11
1010.65 1009.66 1008.67 1007.70 1006.80 1005.99 1005.30 1004.75 1004.35 1004.11 1004.01 1004.04 1004.19 1004.42 1004.71 1005.03 1005.38 1005.73 1006.10 1006.48 1006.88 1007.31 1007.79 1008.32 1008.90 1009.53 1010.20 1010.90 1011.61 1012.30 1012.96 1013.57 1014.12 1014.60 1015.01 1015.35 1015.63 1015.87 1016.07 1016.25 1016.40 1016.54 1016.67
1009.92 1008.82 1007.73 1006.69 1005.73 1004.88 1004.17 1003.63 1003.25 1003.04 1002.99 1003.08 1003.28 1003.57 1003.91 1004.28 1004.67 1005.07 1005.47 1005.88 1006.31 1006.77 1007.27 1007.81 1008.40 1009.03 1009.70 1010.39 1011.07 1011.75 1012.39 1012.98 1013.52 1013.99 1014.41 1014.77 1015.07 1015.34 1015.57 1015.78 1015.96 1016.13 1016.28
1009.30 1008.10 1006.91 1005.78 1004.74 1003.84 1003.08 1002.51 1002.11 1001.90 1001.86 1001.96 1002.19 1002.51 1002.90 1003.33 1003.78 1004.24 1004.71 1005.19 1005.68 1006.20 1006.75 1007.32 1007.93 1008.57 1009.23 1009.90 1010.56 1011.19 1011.80 1012.36 1012.88 1013.35 1013.77 1014.14 1014.48 1014.78 1015.06 1015.31 1015.54 1015.75 1015.93
1008.88 1007.59 1006.33 1005.11 1003.99 1003.00 1002.17 1001.53 1001.07 1000.80 1000.72 1000.79 1001.01 1001.33 1001.74 1002.20 1002.71 1003.24 1003.80 1004.36 1004.95 1005.55 1006.16 1006.80 1007.45 1008.10 1008.76 1009.40 1010.03 1010.63 1011.19 1011.72 1012.21 1012.67 1013.09 1013.48 1013.85 1014.20 1014.53 1014.84 1015.12 1015.38 1015.60
1008.73 1007.40 1006.07 1004.79 1003.59 1002.51 1001.59 1000.84 1000.28 999.92 999.74 999.73 999.88 1000.16 1000.55 1001.03 1001.56 1002.15 1002.78 1003.44 1004.12 1004.81 1005.51 1006.21 1006.91 1007.59 1008.24 1008.87 1009.47 1010.02 1010.55 1011.03 1011.50 1011.94 1012.36 1012.78 1013.18 1013.58 1013.97 1014.34 1014.68 1015.00 1015.27
1008.91 1007.57 1006.21 1004.89 1003.63 1002.48 1001.46 1000.60 999.92 999.42 999.11 998.98 999.01 999.20 999.52 999.96 1000.50 1001.11 1001.79 1002.51 1003.27 1004.04 1004.82 1005.58 1006.32 1007.02 1007.68 1008.29 1008.85 1009.37 1009.84 1010.29 1010.72 1011.15 1011.57 1012.01 1012.45 1012.90 1013.34 1013.78 1014.19 1014.56 1014.89
1009.40 1008.09 1006.76 1005.44 1004.16 1002.96 1001.87 1000.91 1000.11 999.47 999.01 998.72 998.61 998.67 998.88 999.23 999.71 1000.29 1000.97 1001.72 1002.52 1003.34 1004.16 1004.97 1005.73 1006.45 1007.10 1007.68 1008.21 1008.68 1009.11 1009.51 1009.91 1010.31 1010.73 1011.17 1011.64 1012.13 1012.63 1013.13 1013.60 1014.04 1014.43
1010.16 1008.93 1007.67 1006.41 1005.16 1003.96 1002.85 1001.83 1000.94 1000.18 999.57 999.13 998.86 998.75 998.82 999.04 999.41 999.92 1000.55 1001.27 1002.05 1002.87 1003.70 1004.51 1005.27 1005.97 1006.60 1007.14 1007.61 1008.03 1008.39 1008.74 1009.08 1009.44 1009.84 1010.28 1010.76 1011.27 1011.82 1012.36 1012.90 1013.39 1013.83
1011.11 1010.01 1008.87 1007.71 1006.56 1005.43 1004.34 1003.32 1002.39 1001.56 1000.86 1000.28 999.86 999.59 999.49 999.56 999.79 1000.18 1000.70 1001.33 1002.05 1002.82 1003.60 1004.37 1005.08 1005.74 1006.31 1006.79 1007.19 1007.52 1007.80 1008.07 1008.33 1008.63 1008.97 1009.37 1009.83 1010.35 1010.91 1011.49 1012.07 1012.62 1013.11
1012.16 1011.21 1010.23 1009.22 1008.21 1007.20 1006.22 1005.26 1004.36 1003.52 1002.76 1002.11 1001.57 1001.17 1000.92 1000.83 1000.90 1001.13 1001.51 1002.02 1002.62 1003.29 1003.98 1004.66 1005.30 1005.87 1006.35 1006.74 1007.04 1007.26 1007.44 1007.59 1007.74 1007.93 1008.19 1008.51 1008.92 1009.40 1009.95 1010.53 1011.14 1011.73 1012.27
1013.22 1012.43 1011.61 1010.79 1009.95 1009.12 1008.28 1007.46 1006.65 1005.87 1005.13 1004.45 1003.85 1003.36 1002.99 1002.76 1002.68 1002.76 1002.98 1003.34 1003.80 1004.34 1004.91 1005.47 1006.00 1006.46 1006.83 1007.09 1007.26 1007.35 1007.38 1007.38 1007.39 1007.43 1007.55 1007.75 1008.06 1008.46 1008.95 1009.52 1010.12 1010.73 1011.32
1014.21 1013.56 1012.92 1012.28 1011.64 1010.99 1010.35 1009.70 1009.03 1008.37 1007.71 1007.07 1006.47 1005.94 1005.50 1005.16 1004.97 1004.91 1004.98 1005.19 1005.51 1005.90 1006.33 1006.76 1007.16 1007.49 1007.72 1007.85 1007.87 1007.79 1007.65 1007.47 1007.30 1007.16 1007.09 1007.13 1007.29 1007.57 1007.97 1008.47 1009.04 1009.65 1010.26
1015.09 1014.56 1014.06 1013.59 1013.13 1012.68 1012.23 1011.76 1011.27 1010.75 1010.22 1009.67 1009.12 1008.61 1008.15 1007.76 1007.48 1007.32 1007.28 1007.36 1007.55 1007.81 1008.11 1008.40 1008.67 1008.86 1008.95 1008.93 1008.79 1008.54 1008.21 1007.83 1007.44 1007.09 1006.82 1006.65 1006.63 1006.74 1007.01 1007.41 1007.91 1008.49 1009.10
1015.84 1015.39 1015.00 1014.65 1014.34 1014.05 1013.78 1013.48 1013.17 1012.81 1012.42 1011.99 1011.53 1011.07 1010.64 1010.25 1009.94 1009.72 1009.60 1009.59 1009.67 1009.82 1010.01 1010.19 1010.33 1010.40 1010.36 1010.19 1009.89 1009.47 1008.95 1008.37 1007.76 1007.18 1006.68 1006.29 1006.05 1005.98 1006.08 1006.34 1006.75 1007.26 1007.85
1016.46 1016.07 1015.73 1015.47 1015.25 1015.08 1014.93 1014.78 1014.60 1014.39 1014.13 1013.82 1013.47 1013.10 1012.72 1012.37 1012.07 1011.83 1011.68 1011.61 1011.62 1011.69 1011.79 1011.88 1011.92 1011.88 1011.73 1011.43 1010.99 1010.41 1009.72 1008.95 1008.14 1007.35 1006.62 1006.01 1005.55 1005.27 1005.19 1005.30 1005.58 1006.00 1006.54
1016.99 1016.61 1016.29 1016.05 1015.88 1015.77 1015.69 1015.62 1015.54 1015.43 1015.28 1015.08 1014.83 1014.54 1014.24 1013.94 1013.67 1013.45 1013.29 1013.20 1013.17 1013.19 1013.23 1013.25 1013.22 1013.10 1012.86 1012.47 1011.92 1011.22 1010.39 1009.46 1008.49 1007.51 1006.59 1005.78 1005.12 1004.65 1004.39 1004.33 1004.47 1004.78 1005.22
1017.46 1017.06 1016.74 1016.48 1016.31 1016.19 1016.13 1016.09 1016.05 1016.00 1015.92 1015.79 1015.61 1015.40 1015.16 1014.92 1014.70 1014.51 1014.36 1014.27 1014.23 1014.22 1014.22 1014.20 1014.12 1013.95 1013.64 1013.19 1012.57 1011.79 1010.87 1009.84 1008.75 1007.64 1006.58 1005.61 1004.79 1004.16 1003.73 1003.52 1003.51 1003.69 1004.02
1017.87 1017.46 1017.10 1016.82 1016.60 1016.46 1016.36 1016.31 1016.27 1016.23 1016.17 1016.07 1015.95 1015.79 1015.60 1015.41 1015.23 1015.07 1014.94 1014.86 1014.81 1014.79 1014.76 1014.71 1014.61 1014.40 1014.07 1013.58 1012.93 1012.12 1011.16 1010.09 1008.94 1007.77 1006.62 1005.56 1004.63 1003.88 1003.32 1002.96 1002.82 1002.86 1003.07
1018.22 1017.80 1017.42 1017.10 1016.83 1016.64 1016.50 1016.40 1016.32 1016.26 1016.19 1016.11 1016.00 1015.87 1015.72 1015.57 1015.41 1015.28 1015.17 1015.09 1015.04 1015.00 1014.97 1014.90 1014.77 1014.55 1014.21 1013.72 1013.08 1012.28 1011.34 1010.28 1009.14 1007.96 1006.80 1005.71 1004.73 1003.90 1003.24 1002.79 1002.52 1002.43 1002.50
Thickness
5743 5740 5737 5735 5732 5730 5728 5726 5723 5721 5719 5717 5716 5714 5713 5711 5710 5708 5708 5707 5705 5705 5705 5704 5703 5703 5705 5705 5705 5705 5705 5702 5697 5696 5695 5693 5691 5689 5688 5686 5685 5683 5682
5740 5735 5732 5730 5728 5725 5724 5722 5720 5717 5716 5715 5713 5711 5710 5709 5707 5705 5704 5703 5702 5701 5700 5700 5699 5700 5698 5699 5700 5700 5700 5698 5696 5691 5690 5689 5686 5685 5684 5682 5682 5681 5679
5736 5731 5727 5725 5722 5720 5719 5717 5715 5714 5713 5711 5710 5708 5707 5706 5704 5703 5701 5700 5699 5698 5697 5696 5696 5695 5694 5694 5694 5695 5695 5695 5693 5690 5686 5685 5684 5682 5680 5679 5679 5676 5676
5730 5727 5722 5719 5717 5716 5715 5713 5712 5710 5709 5707 5706 5705 5704 5703 5701 5700 5699 5697 5696 5696 5695 5694 5693 5692 5690 5690 5689 5688 5689 5688 5686 5686 5684 5681 5680 5678 5676 5674 5674 5674 5673
5723 5721 5718 5715 5714 5712 5710 5709 5708 5707 5706 5704 5703 5701 5700 5699 5697 5695 5695 5695 5693 5692 5691 5690 5689 5687 5685 5685 5686 5684 5683 5683 5683 5681 5679 5677 5675 5672 5671 5671 5669 5669 5669
5717 5715 5714 5712 5710 5707 5706 5704 5703 5702 5701 5700 5698 5697 5695 5694 5689 5688 5689 5691 5690 5689 5687 5687 5686 5684 5681 5678 5677 5677 5676 5677 5676 5675 5674 5672 5669 5668 5666 5666 5665 5664 5663
5712 5710 5709 5708 5706 5704 5703 5700 5698 5696 5695 5694 5693 5693 5691 5687 5684 5684 5684 5686 5687 5685 5684 5683 5684 5682 5679 5678 5674 5671 5670 5669 5669 5670 5669 5668 5666 5664 5661 5660 5659 5659 5657
5707 5706 5705 5704 5701 5699 5697 5695 5693 5692 5690 5689 5689 5689 5687 5684 5680 5679 5680 5682 5683 5682 5681 5680 5678 5677 5675 5672 5671 5669 5668 5667 5666 5666 5665 5664 5662 5659 5657 5656 5654 5653 5654
5702 5701 5700 5699 5696 5694 5692 5690 5688 5687 5686 5686 5686 5685 5683 5680 5676 5675 5675 5679 5679 5678 5677 5675 5673 5671 5667 5665 5666 5665 5664 5663 5661 5659 5657 5656 5653 5651 5650 5650 5650 5649 5650
5698 5696 5695 5693 5691 5689 5688 5686 5685 5684 5683 5683 5682 5681 5680 5678 5673 5671 5670 5677 5675 5674 5672 5671 5666 5665 5661 5659 5661 5660 5658 5657 5657 5656 5653 5651 5649 5647 5644 5644 5645 5644 5644
5693 5691 5689 5688 5686 5685 5684 5683 5682 5681 5680 5679 5678 5677 5676 5673 5669 5667 5665 5670 5670 5669 5669 5668 5665 5658 5656 5654 5654 5654 5652 5651 5652 5651 5650 5648 5647 5645 5643 5641 5640 5639 5639
5687 5685 5683 5682 5682 5682 5679 5678 5678 5677 5676 5675 5674 5673 5673 5670 5667 5664 5661 5660 5661 5663 5663 5664 5660 5653 5651 5649 5649 5648 5646 5644 5647 5647 5645 5644 5642 5641 5640 5637 5635 5633 5632
5681 5679 5678 5677 5677 5676 5676 5675 5674 5674 5675 5674 5673 5671 5671 5670 5665 5660 5657 5655 5654 5656 5657 5653 5651 5648 5646 5646 5643 5642 5641 5642 5642 5641 5639 5638 5637 5636 5634 5632 5630 5628 5627
5675 5674 5673 5672 5673 5672 5672 5673 5673 5672 5671 5670 5669 5668 5667 5666 5664 5661 5658 5654 5650 5651 5651 5648 5644 5643 5642 5641 5640 5639 5638 5638 5635 5634 5634 5634 5632 5630 5628 5627 5625 5624 5622
5671 5670 5669 5669 5669 5667 5667 5666 5667 5666 5665 5663 5664 5664 5662 5660 5655 5650 5651 5651 5650 5648 5645 5645 5644 5644 5642 5641 5639 5637 5634 5632 5630 5628 5627 5626 5625 5623 5621 5620 5619 5618 5617
5665 5665 5666 5665 5664 5664 5663 5660 5655 5656 5653 5652 5651 5651 5652 5648 5644 5641 5640 5638 5637 5635 5636 5639 5639 5639 5638 5637 5635 5632 5629 5626 5624 5622 5620 5619 5617 5616 5614 5613 5612 5611 5609
5660 5661 5661 5661 5660 5660 5659 5657 5654 5649 5645 5644 5642 5641 5639 5637 5635 5633 5632 5630 5629 5627 5631 5633 5633 5632 5630 5630 5628 5626 5623 5620 5617 5615 5613 5612 5610 5609 5607 5606 5604 5603 5603
5657 5656 5655 5655 5656 5655 5654 5654 5653 5650 5647 5644 5638 5634 5632 5629 5627 5626 5624 5623 5626 5625 5628 5628 5627 5625 5623 5621 5619 5617 5615 5613 5610 5608 5606 5605 5603 5602 5600 5599 5598 5596 5596
5651 5651 5650 5651 5651 5651 5650 5649 5648 5646 5644 5642 5639 5632 5626 5623 5620 5618 5617 5622 5625 5624 5623 5621 5619 5617 5614 5612 5610 5608 5606 5605 5602 5600 5599 5598 5596 5595 5593 5593 5592 5588 5587
5644 5642 5643 5646 5647 5646 5644 5643 5641 5639 5637 5636 5634 5630 5625 5622 5622 5618 5616 5617 5618 5617 5615 5613 5610 5607 5605 5603 5601 5600 5599 5598 5595 5594 5593 5592 5590 5589 5588 5586 5585 5584 5583
5639 5638 5635 5639 5639 5639 5637 5636 5634 5632 5630 5628 5627 5623 5617 5619 5618 5616 5614 5612 5610 5608 5605 5603 5601 5599 5597 5596 5595 5593 5592 5591 5588 5587 5586 5585 5584 5583 5582 5581 5580 5579 5578
5634 5634 5633 5633 5632 5631 5629 5628 5627 5625 5623 5621 5619 5616 5608 5611 5612 5609 5607 5604 5602 5600 5598 5595 5594 5592 5590 5589 5587 5586 5585 5583 5581 5580 5578 5578 5577 5577 5576 5574 5573 5572 5573
5628 5628 5627 5626 5625 5621 5621 5620 5619 5617 5616 5614 5612 5610 5607 5605 5604 5601 5599 5596 5594 5592 5590 5588 5587 5585 5583 5581 5580 5578 5577 5576 5574 5572 5571 5571 5571 5571 5570 5569 5568 5567 5567
5622 5622 5621 5620 5618 5616 5614 5613 5612 5611 5609 5607 5605 5603 5601 5599 5597 5594 5592 5589 5587 5585 5583 5582 5580 5578 5576 5574 5573 5572 5569 5566 5564 5564 5563 5563 5564 5565 5564 5564 5564 5564 5563
5617 5616 5615 5614 5612 5610 5609 5607 5605 5604 5601 5599 5598 5596 5594 5592 5589 5587 5584 5582 5580 5578 5576 5574 5573 5571 5569 5567 5566 5564 5560 5557 5556 5555 5555 5556 5557 5557 5558 5558 5558 5558 5558
5610 5609 5608 5607 5605 5603 5602 5600 5599 5597 5595 5593 5591 5589 5587 5585 5582 5580 5577 5574 5572 5571 5568 5567 5566 5564 5562 5561 5558 5555 5552 5550 5548 5547 5547 5549 5550 5551 5551 5551 5552 5552 5553